To NAV CANADA Home Page Login to a new session Search on AWWS site Feedback and Comments Disclaimer Vers la page française équivalente Tips FAQ What's new on the site To the Forecasts and Observations / NOTAM section To "File a Flight Plan" website Publications and other links Update of the User's profile FIC Telephone Numbers My Weather Data Folder Route Weather Data Regional Weather Data Local Weather Data To the Forecasts and Observations / NOTAM section
Request Generated 10/18/2017 at 03:53:21 UTC . Weather information available at that time is displayed.

METAR/TAF

OLD CROW/YT    

LWIS CYOC 180300Z AUTO 07002KT M11/M13 A2941=
LWIS CYOC 180200Z AUTO 08003KT 030V120 M10/M12 A2941=
METAR CYOC 180100Z 20003KT 160V240 20SM FEW017 BKN030 BKN200 M07/M11
A2941 RMK SC2SC3CI1 CLIMAT -6.7/-11.8/TRCM/TRMWE/47007 LAST STFD
OBS/NXT 181300Z SLP984=

*** REMARK        : Forecast period has ended; this was the last TAF issued
*** REMARQUE : La période de prévision est échue; ceci était le dernier TAF qui a été émis
TAF AMD CYOC 171809Z 1718/1801 VRB03KT 6SM -SN SCT020 BKN040 OVC200
TEMPO 1718/1801 2SM -SN BR BKN020 OVC040
RMK NXT FCST WILL BE ISSUED AT 181445Z=
Your time UTC time
Weather data provided by Environment Canada and NAV CANADA